Back to catalog

TITAN 3C TRANSTAGE DEB

AliveHEO
NORAD 19518·DEBRIS·🇺🇸 United States

Launched Dec 21, 1965 from Cape Canaveral Space Force Station

Loading…

Next Passes (next 24 hours)

TLE

FreshSource: Space-Track

Epoch: Sep 13, 2026, 04:57 UTC

1 19518U 65108Z   26256.20671948 -.00000862  00000-0 -64036-2 0  9991
2 19518  26.2711 227.6095 6628613 156.8001 351.5785  2.92156417347330

Track TITAN 3C TRANSTAGE DEB in real time with AllMySat

Download on the App Store